This is the latest recevied weather packets stored in our database for station/object AE2A-13. If no packets are shown the sender has not sent any weather packets the latest 10 day(s).
| Time | Temp. | Humidity | Pressure | Rain* | Wind** | Luminosity | Snow |
|---|---|---|---|---|---|---|---|
| 1777889103 | 17.22° C | 90% | 1016.6 hPa | 0 mm | - | - | - |
| 1777888205 | 17.22° C | 90% | 1016.8 hPa | 0 mm | - | - | - |
| 1777886704 | 17.78° C | 89% | 1016.8 hPa | 0 mm | - | - | - |
| 1777884903 | 17.78° C | 89% | 1016.5 hPa | 0 mm | - | - | - |
| 1777883404 | 18.33° C | 88% | 1016.5 hPa | 0 mm | - | - | - |
| 1777882503 | 18.33° C | 88% | 1016.7 hPa | 0 mm | - | - | - |
| 1777881904 | 18.89° C | 88% | 1016.8 hPa | 0 mm | - | - | - |
| 1777881604 | 18.89° C | 87% | 1016.9 hPa | 0 mm | - | - | - |
| 1777880104 | 18.89° C | 87% | 1016.6 hPa | 0 mm | - | - | - |
| 1777879504 | 18.89° C | 87% | 1016.5 hPa | 0 mm | - | - | - |
| 1777879204 | 18.89° C | 86% | 1016.6 hPa | 0 mm | - | - | - |
| 1777878904 | 18.89° C | 86% | 1016.6 hPa | 0 mm | - | - | - |
| 1777878605 | 18.89° C | 86% | 1016.7 hPa | 0 mm | - | - | - |
| 1777872904 | 19.44° C | 84% | 1017.7 hPa | 0 mm | - | - | - |
| 1777871704 | 19.44° C | 84% | 1018 hPa | 0 mm | - | - | - |
| 1777869904 | 19.44° C | 84% | 1018.1 hPa | 0 mm | - | - | - |
| 1777867205 | 20° C | 83% | 1018.4 hPa | 0 mm | - | - | - |
| 1777864203 | 20° C | 83% | 1018.6 hPa | 0 mm | - | - | - |
| 1777860604 | 20.56° C | 81% | 1018.2 hPa | 0 mm | - | - | - |
| 1777860004 | 21.11° C | 81% | 1018.1 hPa | 0 mm | - | - | - |
| 1777851304 | 22.22° C | 76% | 1017 hPa | 0 mm | - | - | - |
| 1777848004 | 22.78° C | 73% | 1017 hPa | 0 mm | - | - | - |
| 1777845905 | 23.33° C | 73% | 1017.1 hPa | 0 mm | - | - | - |
| 1777845604 | 23.33° C | 72% | 1017.1 hPa | 0 mm | - | - | - |
| 1777835104 | 23.89° C | 72% | 1017.8 hPa | 0 mm | - | - | - |
* Rain latest hour (hover to see other rain measurements)
** Current wind speed in m/s (hover to see current wind gust speed)